Lake Mohave Weather Center

Moon Phase Calendar



Lake Mohave Water Level
Online Cameras

 


      

Current Conditions in Mohave Crossing
10/25/2021 3:12:34 AM

67°F
Feels Like 65
Clouds
Humidity
45%
Pressure
29.8"
Wind
11.5 mph (S)
Dew Point
45°F
UV Index
0/10 (Low)
Visibility
6 mi

Hourly Forecast

Date & Time Mon, Oct 25
3:00 AM
Mon, Oct 25
4:00 AM
Mon, Oct 25
5:00 AM
Mon, Oct 25
6:00 AM
Mon, Oct 25
7:00 AM
Mon, Oct 25
8:00 AM
Mon, Oct 25
9:00 AM
Mon, Oct 25
10:00 AM
Mon, Oct 25
11:00 AM
Mon, Oct 25
12:00 PM
Mon, Oct 25
1:00 PM
Mon, Oct 25
2:00 PM
Mon, Oct 25
3:00 PM
Mon, Oct 25
4:00 PM
Mon, Oct 25
5:00 PM
Mon, Oct 25
6:00 PM
Mon, Oct 25
7:00 PM
Mon, Oct 25
8:00 PM
Mon, Oct 25
9:00 PM
Mon, Oct 25
10:00 PM
Mon, Oct 25
11:00 PM
Tue, Oct 26
12:00 AM
Tue, Oct 26
1:00 AM
Tue, Oct 26
2:00 AM
Tue, Oct 26
3:00 AM
Tue, Oct 26
4:00 AM
Tue, Oct 26
5:00 AM
Tue, Oct 26
6:00 AM
Tue, Oct 26
7:00 AM
Tue, Oct 26
8:00 AM
Tue, Oct 26
9:00 AM
Tue, Oct 26
10:00 AM
Tue, Oct 26
11:00 AM
Tue, Oct 26
12:00 PM
Tue, Oct 26
1:00 PM
Tue, Oct 26
2:00 PM
Tue, Oct 26
3:00 PM
Tue, Oct 26
4:00 PM
Tue, Oct 26
5:00 PM
Tue, Oct 26
6:00 PM
Tue, Oct 26
7:00 PM
Tue, Oct 26
8:00 PM
Tue, Oct 26
9:00 PM
Tue, Oct 26
10:00 PM
Tue, Oct 26
11:00 PM
Wed, Oct 27
12:00 AM
Wed, Oct 27
1:00 AM
Wed, Oct 27
2:00 AM
Condition
Clouds

Clouds

Clouds

Clouds

Clouds

Clear

Clouds

Clouds

Clouds

Clouds

Clouds

Clouds

Clouds

Clouds

Clouds

Clouds

Clouds

Clouds

Rain

Rain

Clouds

Clear

Clear

Clear

Clear

Clear

Clear

Clear

Clear

Clear

Clear

Clear

Clear

Clear

Clear

Clear

Clear

Clear

Clear

Clear

Clear

Clear

Clear

Clear

Clear

Clear

Clear

Clear
Temperature 67°F67°F67°F67°F66°F69°F72°F75°F77°F79°F80°F81°F82°F82°F79°F76°F69°F64°F62°F63°F62°F59°F59°F58°F58°F57°F56°F56°F55°F59°F61°F64°F66°F69°F72°F73°F74°F74°F73°F70°F68°F66°F65°F64°F64°F63°F63°F62°F
Feels Like 65°F66°F66°F66°F65°F68°F72°F74°F76°F79°F80°F80°F81°F80°F79°F75°F68°F62°F61°F61°F60°F57°F57°F56°F55°F55°F54°F54°F53°F56°F59°F62°F64°F67°F70°F71°F72°F72°F71°F68°F65°F64°F62°F62°F61°F60°F60°F59°F
Cloudiness 74%73%73%34%22%9%15%28%40%96%77%63%64%71%76%89%87%91%93%94%90%0%2%2%1%1%1%0%0%0%0%0%0%0%0%0%0%0%0%0%0%0%0%0%0%0%0%0%
Visibility 6 mi6 mi6 mi6 mi6 mi6 mi6 mi6 mi6 mi6 mi6 mi6 mi6 mi6 mi6 mi6 mi6 mi6 mi6 mi6 mi6 mi6 mi6 mi6 mi6 mi6 mi6 mi6 mi6 mi6 mi6 mi6 mi6 mi6 mi6 mi6 mi6 mi6 mi6 mi6 mi6 mi6 mi6 mi6 mi6 mi6 mi6 mi6 mi
Precipitation 0%0%0%0%0%0%0%0%0%0%0%0%0%0%2%21%35%41%54%76%71%3%2%0%0%0%0%0%0%0%0%0%0%0%0%0%0%0%0%0%0%0%0%0%0%0%0%0%
Humidity 45%46%47%50%54%52%45%41%38%34%33%33%32%32%35%39%54%51%51%45%42%47%49%50%51%51%52%53%53%47%41%35%30%25%20%17%16%16%18%20%22%24%25%26%26%27%28%28%
Dew Point 45°F46°F46°F48°F49°F46°F46°F46°F45°F45°F45°F46°F46°F45°F46°F46°F47°F42°F40°F37°F35°F36°F36°F36°F36°F36°F35°F35°F35°F35°F34°F32°F31°F28°F26°F24°F23°F23°F24°F24°F25°F25°F25°F25°F25°F25°F25°F26°F
Pressure 29.8"29.8"29.8"29.77"29.77"29.77"29.77"29.77"29.74"29.71"29.68"29.62"29.59"29.56"29.56"29.59"29.65"29.71"29.74"29.74"29.83"29.83"29.83"29.85"29.85"29.85"29.88"29.91"29.94"29.97"30"30"30"30"29.97"29.97"29.94"29.94"29.97"29.97"30"30.03"30.06"30.06"30.06"30.06"30.06"30.09"
Wind Speed 11.5 mph11.6 mph10.8 mph10.8 mph12.6 mph14.8 mph19.4 mph23.5 mph25.7 mph28.6 mph32.3 mph31.7 mph32.1 mph31.9 mph29.4 mph27.9 mph24.2 mph20.8 mph10.2 mph13.8 mph13.9 mph7.5 mph3.7 mph3.4 mph4 mph3.7 mph3.2 mph2.9 mph2.2 mph2 mph1.1 mph1 mph2.9 mph5.5 mph8.2 mph10.3 mph12.2 mph15.1 mph15.5 mph8.2 mph4.2 mph1.9 mph1.2 mph1.1 mph1.2 mph1.7 mph1.9 mph2.2 mph
Wind
Direction
180°
S
178°
S
181°
S
182°
S
176°
S
177°
S
178°
S
177°
S
179°
S
176°
S
180°
S
182°
S
186°
S
186°
S
191°
S
191°
S
246°
WSW
270°
W
235°
SW
223°
SW
261°
W
272°
W
189°
S
181°
S
170°
S
170°
S
190°
S
201°
SSW
186°
S
176°
S
240°
WSW
305°
NW
347°
NNW
347°
NNW
344°
NNW
334°
NNW
319°
NW
316°
NW
332°
NNW
351°
N
349°
N
348°
NNW
351°
N
354°
N
323°
NW
306°
NW
307°
NW
334°
NNW

Daily Forecast

Date High Low Precip. Humidity
Today
Oct 25

Rain
82 °F
62 °F
76%
34%
Tuesday
Oct 26

Clear
74 °F
55 °F
3%
25%
Wednesday
Oct 27

Clear
79 °F
62 °F
0%
19%
Thursday
Oct 28

Clear
82 °F
67 °F
0%
22%
Friday
Oct 29

Clear
86 °F
69 °F
0%
22%
Saturday
Oct 30

Clear
86 °F
70 °F
0%
18%
Sunday
Oct 31

Clouds
83 °F
72 °F
0%
24%
Monday
Nov 1

Clouds
82 °F
69 °F
0%
28%
Tuesday
Nov 2

Clouds
82 °F
71 °F
0%
26%
Wednesday
Nov 3

Clouds
80 °F
67 °F
0%
27%
Thursday
Nov 4

Clouds
79 °F
64 °F
0%
27%
Friday
Nov 5

Rain
69 °F
59 °F
100%
69%
Saturday
Nov 6

Rain
67 °F
59 °F
95%
60%
Sunday
Nov 7

Rain
65 °F
59 °F
91%
70%
Monday
Nov 8

Clear
68 °F
59 °F
0%
48%
Tuesday
Nov 9

Clouds
71 °F
61 °F
0%
43%

Temperature 8-14 Day Outlook



Precipitation 8-14 Day Outlook




Quick Links
Lake Mohave News
Lake Mohave Photos
Lake Mohave Videos




About Us
Contact Us
Site Map
Search Site
Advertise With Us
   
Mohave.LakesOnline.com
THE LAKE MOHAVE WEBSITE

Copyright 2021, Lakes Online
Privacy    |    Legal